Weather History for KUAO - May, 2013

Change the Weather History Date:

Friday, May 24, 2013

  Actual Average Record
Temperature  
Mean Temperature 52 °F -  
Max Temperature 59 °F - 80 °F (2001)
Min Temperature 47 °F - 43 °F (2005)
Degree Days  
Heating Degree Days 12    
Month to date heating degree days 168  
Since 1 July heating degree days 4217  
Cooling Degree Days 0    
Month to date cooling degree days 15  
Year to date cooling degree days 15  
Growing Degree Days 2 (Base 50)    
Moisture  
Dew Point 46 °F    
Average Humidity 80    
Maximum Humidity 93    
Minimum Humidity 66    
Precipitation  
Precipitation 0.07 in - 0.87 in (2012)
Month to date precipitation 2.73  
Year to date precipitation 10.64  
Sea Level Pressure  
Sea Level Pressure 30.06 in    
Wind  
Wind Speed 8 mph (SSW)    
Max Wind Speed 22 mph    
Max Gust Speed 28 mph    
Visibility 10 miles    
Events Rain    
T = Trace of Precipitation, MM = Missing Value Source: NWS Daily Summary

Daily Weather History Graph

Daily Weather History Graph

Search for Another Location

Airport or City:

Trip Planner

Search our weather history database for the weather conditions in past years. The results will help you decide how hot, cold, wet, or windy it might be!

Date:

Astronomy

May. 24, 2013 Rise Set
Actual Time 5:32 AM PDT 8:44 PM PDT
Civil Twilight 4:56 AM PDT 9:20 PM PDT
Nautical Twilight 4:10 AM PDT 10:06 PM PDT
Astronomical Twilight 3:13 AM PDT 11:03 PM PDT
Moon 8:31 PM PDT (5/24) 5:11 AM PDT (5/24)
Length of Visible Light 16h 23m
Length of Day
15h 12m
Full, 100% of the Moon is Illuminated
May 24
Full
May 24
Full
May 31
Last Quarter
Jun 8
New
Jun 16
First Quarter

Hourly Weather History & Observations

Time (PDT) Temp. Dew Point Humidity Pressure Visibility Wind Dir Wind Speed Gust Speed Precip Events Conditions
12:43 AM 48.2 °F 46.4 °F 93% 30.00 in 10.0 mi SSW 6.9 mph - 0.01 in Rain Light Rain
12:53 AM 48.9 °F 46.9 °F 93% 30.00 in 10.0 mi SSW 9.2 mph - 0.02 in Rain Light Rain
1:08 AM 48.2 °F 46.4 °F 93% 30.00 in 10.0 mi SSW 8.1 mph - 0.00 in Rain Light Rain
1:53 AM 48.9 °F 46.9 °F 93% 30.00 in 10.0 mi SSW 8.1 mph - 0.01 in   Overcast
2:53 AM 48.0 °F 46.9 °F 96% 30.00 in 10.0 mi SSW 5.8 mph - N/A   Overcast
3:53 AM 48.0 °F 46.9 °F 96% 30.01 in 10.0 mi SSW 8.1 mph - 0.01 in Rain Light Rain
4:29 AM 48.2 °F 46.4 °F 93% 30.01 in 10.0 mi SSW 5.8 mph - 0.01 in Rain Light Rain
4:53 AM 48.0 °F 46.9 °F 96% 30.01 in 10.0 mi SSW 4.6 mph - 0.02 in Rain Light Rain
5:53 AM 46.9 °F 46.0 °F 97% 30.03 in 10.0 mi South 5.8 mph - 0.00 in   Overcast
6:53 AM 48.0 °F 46.0 °F 93% 30.04 in 10.0 mi South 10.4 mph - N/A   Overcast
7:53 AM 48.9 °F 46.0 °F 90% 30.05 in 10.0 mi SSW 9.2 mph - N/A   Overcast
8:53 AM 51.1 °F 46.0 °F 83% 30.06 in 10.0 mi South 13.8 mph 19.6 mph N/A   Mostly Cloudy
9:03 AM 51.8 °F 46.4 °F 82% 30.06 in 10.0 mi South 13.8 mph 21.9 mph N/A   Overcast
9:11 AM 51.8 °F 46.4 °F 82% 30.06 in 10.0 mi South 12.7 mph 19.6 mph N/A   Overcast
9:29 AM 51.8 °F 44.6 °F 76% 30.07 in 10.0 mi South 18.4 mph 24.2 mph N/A   Overcast
9:39 AM 51.8 °F 46.4 °F 82% 30.07 in 10.0 mi SSW 13.8 mph 23.0 mph N/A   Overcast
9:48 AM 51.8 °F 44.6 °F 76% 30.07 in 10.0 mi South 17.3 mph 23.0 mph 0.00 in Rain Light Rain
9:53 AM 52.0 °F 46.0 °F 80% 30.07 in 10.0 mi South 13.8 mph 23.0 mph 0.00 in Rain Light Rain
10:12 AM 51.8 °F 46.4 °F 82% 30.07 in 9.0 mi South 15.0 mph 21.9 mph 0.00 in Rain Light Rain
10:35 AM 51.8 °F 44.6 °F 76% 30.08 in 10.0 mi South 16.1 mph 21.9 mph 0.00 in   Overcast
10:53 AM 52.0 °F 45.0 °F 77% 30.08 in 10.0 mi SSW 12.7 mph 21.9 mph 0.00 in   Overcast
11:26 AM 53.6 °F 44.6 °F 72% 30.08 in 10.0 mi SSW 16.1 mph 24.2 mph N/A   Overcast
11:53 AM 54.0 °F 45.0 °F 72% 30.09 in 10.0 mi SSW 12.7 mph 21.9 mph N/A   Overcast
12:25 PM 53.6 °F 46.4 °F 77% 30.08 in 10.0 mi South 18.4 mph 27.6 mph N/A   Overcast
12:53 PM 55.0 °F 46.0 °F 72% 30.09 in 10.0 mi South 18.4 mph 25.3 mph N/A   Overcast
1:26 PM 55.4 °F 44.6 °F 67% 30.08 in 10.0 mi SSW 10.4 mph 21.9 mph N/A   Overcast
1:53 PM 55.9 °F 45.0 °F 67% 30.09 in 10.0 mi SSW 12.7 mph 24.2 mph N/A   Overcast
2:22 PM 57.2 °F 46.4 °F 67% 30.09 in 10.0 mi South 18.4 mph 25.3 mph 0.00 in   Overcast
2:53 PM 55.0 °F 46.0 °F 72% 30.09 in 9.0 mi SW 10.4 mph 18.4 mph 0.00 in Rain Light Rain
3:10 PM 55.4 °F 48.2 °F 77% 30.09 in 10.0 mi SSW 11.5 mph 18.4 mph 0.00 in Rain Light Rain
3:53 PM 57.9 °F 46.0 °F 65% 30.09 in 10.0 mi SSW 11.5 mph 19.6 mph 0.00 in   Overcast
4:53 PM 53.1 °F 46.9 °F 80% 30.09 in 4.0 mi WSW 8.1 mph 23.0 mph 0.02 in Rain Rain
5:53 PM 57.9 °F 48.0 °F 70% 30.08 in 10.0 mi SW 9.2 mph - 0.01 in   Mostly Cloudy
6:53 PM 55.0 °F 48.9 °F 80% 30.09 in 10.0 mi South 10.4 mph - 0.00 in   Overcast
7:53 PM 53.1 °F 48.9 °F 86% 30.09 in 10.0 mi South 8.1 mph - N/A   Overcast
8:53 PM 52.0 °F 48.9 °F 89% 30.09 in 10.0 mi Calm Calm - N/A   Overcast
9:53 PM 52.0 °F 48.9 °F 89% 30.10 in 10.0 mi Calm Calm - N/A   Overcast
10:53 PM 52.0 °F 48.0 °F 86% 30.10 in 10.0 mi Calm Calm - N/A   Overcast
11:53 PM 51.1 °F 48.0 °F 89% 30.10 in 10.0 mi Calm Calm - N/A   Overcast